Regional Weather Roundup
Issued by NWS Northern Indiana

Home | Current Version | Previous Version | Graphics & Text | Print | Product List | Glossary On
Versions: 1 2 3 4 5 6 7 8 9 10 11 12 13 14 15 16 17 18 19 20 21 22 23 24 25 26 27 28 29 30 31 32 33 34 35 36 37 38 39 40 41 42 43 44 45 46 47 48 49 50
000
ASUS43 KIWX 210200
RWRIWX

KIWX WEATHER ROUNDUP
NATIONAL WEATHER SERVICE NORTHERN INDIANA
1000 PM EDT MON APR 20 2015

NOTE: "FAIR" INDICATES FEW OR NO CLOUDS BELOW 12,000 FEET WITH NO
SIGNIFICANT WEATHER AND/OR OBSTRUCTIONS TO VISIBILITY.

* THESE STATIONS ARE NOT UNDER NWS QUALITY CONTROL. THEY ALSO MAY NOT
  REPORT WEATHER SUCH AS PRECIPITATION OR FOG.

INZ001>027-210300-
NORTHERN INDIANA

CITY           SKY/WX    TMP DP  RH WIND       PRES   REMARKS
GARY*          PTCLDY    46  25  42 W14       29.64R
SOUTH BEND     MOCLDY    46  30  53 W15       29.63R
GOSHEN         CLOUDY    46  32  58 W22G30    29.62R
ANGOLA*        CLOUDY    46  36  66 W18       29.60R
FORT WAYNE     MOCLDY    46  34  62 W20G29    29.66R
PERU/GRISSOM   MOCLDY    45  37  74 W12       29.68R

$$
INZ028>050-210300-
CENTRAL INDIANA

CITY           SKY/WX    TMP DP  RH WIND       PRES   REMARKS
LAFAYETTE      CLEAR     44  34  67 W9G21     29.71R
KOKOMO*        MOCLDY    46  36  66 W13       29.70R
MUNCIE*        CLOUDY    47  37  68 W15       29.70R
INDIANAPOLIS   CLOUDY    48  35  60 W14       29.73R

$$
MIZ043>046-050>051-056>058-064>065-071>073-077>080-210300-
SOUTHWEST LOWER MICHIGAN

CITY           SKY/WX    TMP DP  RH WIND       PRES   REMARKS
BATTLE CREEK   CLOUDY    43  36  76 W13       29.58R
BENTON HARBOR  CLOUDY    42  35  76 W14       29.60R
COLDWATER*     CLOUDY    44  35  71 W14G21    29.59R
HILLSDALE*     CLOUDY    45  39  79 W9        29.58R
HOLLAND        CLOUDY    43  35  73 W13       29.57R
GRAND RAPIDS   LGT RAIN  41  38  89 W16       29.54R
KALAMAZOO      CLOUDY    44  35  70 W12       29.59R
STURGIS*       CLOUDY    45  36  70 W15       29.59R
THREE RIVERS*  CLOUDY    45  35  68 W14       29.60R

$$
OHZ001>008-015>018-024>025-210300-
NORTHWEST OHIO

CITY           SKY/WX    TMP DP  RH WIND       PRES   REMARKS
DEFIANCE       CLOUDY    48  36  63 W10       29.62R
FINDLAY        MOCLDY    47  37  68 W20       29.63R
TOLEDO EXPRESS CLOUDY    48  35  60 W16G24    29.59R
TOLEDO METCALF PTCLDY    49  37  63 SW15      29.60R
LIMA           MOCLDY    48  37  65 W13       29.65R

$$
AND FOR LAKE MICHIGAN COASTAL AND OPEN LAKE BUOY OBSERVATIONS

STATION/POSITION TEMP    WIND        PRES    VSBY  WAVE
                 AIR SEA DIR/SP/G                  HT/PER
                 (F)     (DEG/KT/KT) (MB)    (MI)  (FT/S)
CALUMET HARBOR    46     250/ 11/ 16   N/A
MICHIGAN CITY     45     240/ 23/ 26   N/A
BURNS HARBOR      47     260/ 25/ 29 1003.7R
SAINT JOSEPH      43     210/ 12/ 16 1002.7R
MICHIGAN CITY     45 45  270/ 16/ 19   N/A           5/ 5

$$
&&


USA.gov is the U.S. government's official web portal to all federal, state and local government web resources and services.